Location: Vinland
(47.7731°N, 122.6974°W)
Time: 21:02:19
(UTC+00:00)

A-11 Canister half - Visible Passes

Search period start: 21 March 2023 00:00
Search period end: 31 March 2023 00:00
Orbit: 1512 x 1687 km, 47.2° (Epoch: 21 March)

Date Brightness Start Highest point End Pass type
(mag) Time Alt. Az. Time Alt. Az. Time Alt. Az.
21 Mar 11.0 07:10:58 11° ENE 07:10:58 11° ENE 07:11:12 10° ENE visible
21 Mar 9.5 09:09:09 53° E 09:09:09 53° E 09:16:21 10° E visible
21 Mar 9.0 11:07:20 44° W 11:11:16 78° SSW 11:21:23 10° ESE visible
21 Mar 9.5 13:06:18 10° WNW 13:15:35 42° SW 13:24:44 10° SSE visible
22 Mar 10.5 04:28:33 10° S 04:30:00 13° SSE 04:30:00 13° SSE visible
22 Mar11.106:49:08ENE06:49:08ENE06:28:20SWvisible
22 Mar 9.8 08:47:18 43° E 08:47:18 43° E 08:53:21 10° E visible
22 Mar 9.0 10:45:29 54° W 10:48:17 80° SSW 10:58:26 10° ESE visible
22 Mar 9.4 12:43:40 11° WNW 12:52:40 44° SW 13:01:56 10° SSE visible
23 Mar 10.2 04:06:06 10° SSE 04:10:02 17° SE 04:10:02 17° SE visible
23 Mar 10.5 06:06:01 10° SW 06:27:20 - ENE 06:08:23 19° SSW visible
23 Mar 10.1 08:25:32 33° E 08:25:32 33° E 08:30:22 10° E visible
23 Mar 8.9 10:23:43 68° W 10:25:18 81° SSW 10:35:29 10° ESE visible
23 Mar 9.4 12:21:54 16° WNW 12:29:46 46° SW 12:39:09 10° SSE visible
24 Mar 10.1 03:43:42 10° SSE 03:49:28 17° SE 03:50:11 17° ESE visible
24 Mar 9.8 05:43:11 10° SW 05:48:32 34° SSW 05:48:32 34° SSW visible
24 Mar 10.4 08:03:52 25° E 08:03:52 25° E 08:07:22 10° E visible
24 Mar 8.9 10:02:03 82° SW 10:02:18 82° SSW 10:12:31 10° ESE visible
24 Mar 9.3 12:00:15 22° W 12:06:50 48° SW 12:16:20 10° SE visible
25 Mar 10.2 03:21:23 10° SSE 03:26:38 16° SE 03:30:20 13° E visible
25 Mar 9.2 05:20:22 10° SW 05:28:41 47° SSE 05:28:41 47° SSE visible
25 Mar 10.4 07:24:06 10° WSW 07:42:20 18° E 07:44:22 10° E visible
25 Mar 9.0 09:40:33 73° ESE 09:40:33 73° ESE 09:49:32 10° ESE visible
25 Mar 9.2 11:38:46 29° W 11:43:55 51° SW 11:53:30 10° SE visible
26 Mar 10.3 02:59:10 10° SSE 03:03:49 14° ESE 03:08:32 10° E visible
26 Mar 9.2 04:57:34 10° SSW 05:06:44 46° SE 05:08:46 41° ESE visible
26 Mar 9.6 07:01:09 10° WSW 07:21:02 11° E 07:21:22 10° E visible
26 Mar 9.4 09:19:17 54° ESE 09:19:17 54° ESE 09:26:34 10° ESE visible
26 Mar 9.2 11:17:31 39° W 11:20:59 53° SSW 11:30:39 10° SE visible
26 Mar 10.2 13:17:48 10° W 13:24:15 19° SW 13:30:39 10° SSW visible
27 Mar 9.3 04:34:48 10° SSW 04:43:50 44° SE 04:48:40 28° E visible
27 Mar 9.0 06:38:13 10° WSW 07:00:01 - E 06:46:58 71° SW visible
27 Mar 9.9 08:43:12 10° W 08:58:17 37° ESE 09:03:34 10° ESE visible
27 Mar 9.1 10:56:34 51° WSW 10:58:03 55° SSW 11:07:48 10° SE visible
27 Mar 10.1 12:54:50 11° W 13:01:24 21° SW 13:08:12 10° S visible
28 Mar 9.4 04:12:02 10° SSW 04:20:56 42° SE 04:28:15 16° E visible
28 Mar 8.9 06:15:17 10° WSW 06:25:11 78° SSE 06:26:32 69° ESE visible
28 Mar 10.0 08:20:13 10° W 08:37:40 22° E 08:40:36 10° E visible
28 Mar 9.1 10:35:58 56° SSW 10:35:58 56° SSW 10:44:55 10° SE visible
28 Mar 10.0 12:34:15 17° W 12:38:34 22° SW 12:45:40 10° S visible
29 Mar 9.5 03:49:17 10° SSW 03:58:03 40° SE 04:07:05 10° ENE visible
29 Mar 8.9 05:52:21 10° WSW 06:02:13 77° SSE 06:05:45 47° E visible
29 Mar 9.5 07:57:15 10° W 08:17:23 11° E 08:17:36 10° E visible
29 Mar 9.6 10:15:43 42° SSE 10:15:43 42° SSE 10:22:03 10° SE visible
29 Mar 9.9 12:14:02 23° WSW 12:15:42 24° SW 12:23:07 10° S visible
30 Mar 9.5 03:26:33 10° SSW 03:35:09 38° SE 03:44:02 10° ENE visible
30 Mar 8.9 05:29:26 10° WSW 05:39:15 75° SSE 05:44:38 33° E visible
30 Mar 9.1 07:34:16 10° W 07:57:22 - E 07:42:52 70° W visible
30 Mar 10.3 09:39:19 10° WNW 09:55:42 25° SE 09:59:09 10° SE visible
30 Mar 9.9 11:54:03 25° SW 11:54:03 25° SW 12:00:32 10° S visible
